DH8TOM-2 Weather Reports


time (UTC)temp
C
wind
direction
speed
KPH
gust
KPH
rain 1hr
cm
rain 24hr
cm
rain mn
cm
humidity
%
barometer
mb
20260507144735 14 302 6.4 14.5 0.00 0.97 0.43 73 1012.2
20260507144234 14 302 6.4 14.5 0.00 0.97 0.43 73 1012.2
20260507143733 14 298 3.2 6.4 0.00 1.04 0.43 74 1012.2
20260507143232 14 298 3.2 6.4 0.00 1.04 0.43 74 1012.2
20260507142731 14 299 3.2 6.4 0.00 1.09 0.43 73 1012.2
20260507142229 14 299 3.2 6.4 0.00 1.09 0.43 73 1012.2
20260507141728 15 306 3.2 6.4 0.00 1.09 0.43 72 1012.1
20260507141227 15 306 3.2 6.4 0.00 1.09 0.43 72 1012.1
20260507140726 15 308 3.2 9.7 0.00 1.14 0.43 73 1012.1
20260507140225 15 308 3.2 9.7 0.00 1.14 0.43 73 1012.1
20260507135724 14 310 3.2 9.7 0.00 1.17 0.43 72 1012.1
20260507135224 14 310 3.2 9.7 0.00 1.17 0.43 72 1012.1
20260507134723 15 306 4.8 9.7 0.00 1.17 0.43 72 1012.2
20260507134222 15 306 4.8 9.7 0.00 1.17 0.43 72 1012.2
20260507133721 15 311 3.2 9.7 0.00 1.19 0.43 74 1012.2
20260507133219 15 311 3.2 9.7 0.00 1.19 0.43 74 1012.2
20260507132719 14 313 3.2 9.7 0.00 1.27 0.43 73 1012.1
20260507132219 14 313 3.2 9.7 0.00 1.27 0.43 73 1012.1
20260507131717 14 316 3.2 9.7 0.00 1.30 0.43 72 1012.0
20260507131217 14 316 3.2 9.7 0.00 1.30 0.43 72 1012.0
20260507130715 15 327 1.6 6.4 0.00 1.30 0.43 71 1012.0
20260507130213 15 327 1.6 6.4 0.00 1.30 0.43 71 1012.0
20260507125712 15 295 3.2 8.0 0.00 1.30 0.43 71 1012.0
20260507125212 15 295 3.2 8.0 0.00 1.30 0.43 71 1012.0
20260507124712 15 0 1.6 3.2 0.00 1.30 0.43 70 1011.9
20260507124209 15 0 1.6 3.2 0.00 1.30 0.43 70 1011.9
20260507123708 15 327 1.6 6.4 0.00 1.30 0.43 71 1011.9
20260507123208 15 327 1.6 6.4 0.00 1.30 0.43 71 1011.9
20260507122707 15 270 1.6 4.8 0.00 1.30 0.43 74 1011.9
20260507122206 15 270 1.6 4.8 0.00 1.30 0.43 74 1011.9
20260507121705 15 304 1.6 4.8 0.00 1.30 0.43 75 1011.9
20260507121204 15 304 1.6 4.8 0.00 1.30 0.43 75 1011.9
20260507120702 14 322 1.6 6.4 0.00 1.32 0.43 76 1011.9
20260507120201 14 322 1.6 6.4 0.00 1.32 0.43 76 1011.9
20260507115700 14 315 1.6 3.2 0.00 1.37 0.43 76 1011.9
20260507115159 14 315 1.6 3.2 0.00 1.37 0.43 76 1011.9
20260507114659 13 315 1.6 4.8 0.00 1.37 0.43 76 1011.9
20260507114158 13 315 1.6 4.8 0.00 1.37 0.43 76 1011.9
20260507113657 13 298 3.2 6.4 0.00 1.37 0.43 77 1012.0
20260507113157 13 298 3.2 6.4 0.00 1.37 0.43 77 1012.0
20260507112655 13 300 3.2 8.0 0.00 1.37 0.43 78 1011.9
20260507112153 13 300 3.2 8.0 0.00 1.40 0.43 78 1011.9
20260507111652 13 306 3.2 6.4 0.00 1.40 0.43 78 1011.9
20260507111151 13 306 3.2 6.4 0.00 1.40 0.43 78 1011.9
20260507110651 13 303 3.2 9.7 0.00 1.40 0.43 76 1012.0
20260507110150 13 303 3.2 9.7 0.00 1.40 0.43 76 1012.0
20260507105649 13 310 6.4 14.5 0.00 1.40 0.43 77 1011.9
20260507105148 13 310 6.4 14.5 0.00 1.40 0.43 77 1011.9
20260507104647 13 305 4.8 11.3 0.00 1.40 0.43 76 1011.9
20260507104146 13 305 4.8 11.3 0.00 1.40 0.43 76 1011.9
20260507103645 14 319 3.2 9.7 0.00 1.40 0.43 75 1011.9
20260507103145 14 319 3.2 9.7 0.00 1.40 0.43 75 1011.9
20260507102643 14 210 1.6 3.2 0.00 1.40 0.43 78 1011.8
20260507102141 14 210 1.6 3.2 0.00 1.40 0.43 78 1011.8
20260507072607 10 135 1.6 3.2 0.03 1.40 0.43 96 1010.7
20260507072106 10 135 1.6 3.2 0.03 1.40 0.43 96 1010.7
20260507071605 10 180 1.6 4.8 0.03 1.40 0.43 97 1010.6
20260507071104 10 180 1.6 4.8 0.03 1.40 0.43 97 1010.6
20260507070603 10 194 1.6 4.8 0.05 1.40 0.43 98 1010.6
20260507065601 10 180 1.6 6.4 0.05 1.40 0.43 98 1010.4
20260507065100 10 180 1.6 6.4 0.05 1.40 0.43 98 1010.4
20260507064559 9 161 1.6 6.4 0.05 1.40 0.43 98 1010.3
20260507064057 9 161 1.6 6.4 0.05 1.40 0.43 98 1010.3
20260507063557 9 194 1.6 4.8 0.08 1.37 0.41 98 1010.2
20260507063057 9 194 1.6 4.8 0.08 1.37 0.41 98 1010.2
20260507062555 9 176 1.6 3.2 0.10 1.37 0.41 98 1010.2
20260507062053 9 176 1.6 3.2 0.10 1.37 0.41 98 1010.2
20260507061553 8 194 1.6 6.4 0.10 1.37 0.41 97 1010.1
20260507061053 8 194 1.6 6.4 0.10 1.37 0.41 97 1010.1
20260507060551 8 145 1.6 6.4 0.10 1.35 0.38 97 1010.0
20260507060051 8 145 1.6 6.4 0.10 1.35 0.38 97 1010.0
20260507055549 8 151 1.6 6.4 0.13 1.35 0.38 97 1009.9
20260507055048 8 151 1.6 6.4 0.13 1.35 0.38 97 1009.9
20260507054547 8 193 1.6 6.4 0.13 1.32 0.36 97 1009.8
20260507054047 8 193 1.6 6.4 0.13 1.32 0.36 97 1009.8
20260507053545 8 158 1.6 4.8 0.13 1.32 0.36 97 1009.6
20260507053044 8 158 1.6 4.8 0.13 1.32 0.36 97 1009.6
20260507052544 8 140 1.6 4.8 0.10 1.30 0.30 97 1009.5
20260507052042 8 140 1.6 4.8 0.10 1.30 0.30 97 1009.5
20260507051542 8 161 1.6 3.2 0.10 1.24 0.28 97 1009.4
20260507051040 8 161 1.6 3.2 0.10 1.24 0.28 97 1009.4
20260507050539 8 150 1.6 4.8 0.10 1.24 0.28 97 1009.3
20260507050038 8 150 1.6 4.8 0.10 1.24 0.28 97 1009.3
20260507045537 8 90 1.6 4.8 0.10 1.22 0.25 97 1009.2
20260507045036 8 90 1.6 4.8 0.10 1.22 0.25 97 1009.2
20260507044534 8 163 1.6 4.8 0.10 1.22 0.25 96 1009.0
20260507044033 8 163 1.6 4.8 0.10 1.22 0.25 96 1009.0
20260507043533 8 173 1.6 4.8 0.10 1.19 0.23 96 1008.9
20260507043032 8 173 1.6 4.8 0.10 1.19 0.23 96 1008.9
20260507042530 8 174 1.6 4.8 0.08 1.17 0.20 96 1008.8
20260507042030 8 174 1.6 4.8 0.08 1.17 0.20 96 1008.8
20260507041529 8 175 1.6 8.0 0.08 1.14 0.18 96 1008.7
20260507041028 8 175 1.6 8.0 0.08 1.14 0.18 96 1008.7
20260507040527 8 184 1.6 6.4 0.05 1.14 0.15 96 1008.7
20260507040026 8 184 1.6 6.4 0.05 1.14 0.15 96 1008.7
20260507035525 8 154 1.6 4.8 0.05 1.12 0.15 96 1008.5
20260507035024 8 154 1.6 4.8 0.05 1.12 0.15 96 1008.5
20260507034523 8 177 1.6 6.4 0.03 1.12 0.15 96 1008.5
20260507034022 8 177 1.6 6.4 0.03 1.12 0.15 96 1008.5
20260507033521 8 171 1.6 6.4 0.03 1.09 0.13 95 1008.4
20260507033019 8 171 1.6 6.4 0.03 1.09 0.13 95 1008.4
20260507032518 8 166 1.6 4.8 0.03 1.09 0.13 95 1008.3
20260507032018 8 166 1.6 4.8 0.03 1.09 0.13 95 1008.3
20260507031517 8 178 3.2 6.4 0.00 1.09 0.10 95 1008.2
20260507031016 8 178 3.2 6.4 0.03 1.09 0.10 95 1008.2
20260507030515 8 175 1.6 6.4 0.03 1.09 0.10 95 1008.2
20260507025512 8 172 1.6 4.8 0.03 1.09 0.10 96 1008.3
20260507024510 8 170 1.6 6.4 0.03 1.09 0.10 96 1008.2
20260507023508 8 170 1.6 6.4 0.05 1.09 0.10 96 1008.2
20260507022507 8 167 1.6 4.8 0.03 1.07 0.10 96 1008.2
20260507021507 8 165 1.6 6.4 0.05 1.07 0.10 96 1008.1
20260507020503 8 151 1.6 6.4 0.03 1.04 0.08 96 1007.9
20260507015501 8 168 1.6 6.4 0.03 1.04 0.08 95 1007.9
20260507015000 8 167 1.6 6.4 0.03 1.04 0.08 95 1007.8
20260507014459 8 167 1.6 6.4 0.03 1.04 0.08 95 1007.8
20260507013958 8 174 1.6 3.2 0.00 1.04 0.08 95 1007.7
20260507013456 8 174 1.6 3.2 0.00 1.04 0.08 95 1007.7
20260507012955 8 214 1.6 4.8 0.00 1.04 0.08 96 1007.6
20260507012454 8 214 1.6 4.8 0.00 1.04 0.08 96 1007.6
20260507011953 8 197 1.6 4.8 0.00 1.04 0.05 96 1007.6
20260507011452 8 197 1.6 4.8 0.00 1.04 0.05 96 1007.6
20260507010951 8 192 1.6 6.4 0.00 1.04 0.05 96 1007.6
20260507010451 8 192 1.6 6.4 0.00 1.04 0.05 96 1007.6
20260507005950 8 193 1.6 4.8 0.00 1.04 0.05 96 1007.7
20260507005448 8 193 1.6 4.8 0.00 1.04 0.05 96 1007.7
20260507004947 8 205 3.2 6.4 0.00 1.04 0.05 96 1007.5
20260507004446 8 205 3.2 6.4 0.00 1.04 0.05 96 1007.5
20260507003945 8 216 3.2 6.4 0.00 1.04 0.05 96 1007.5
20260507003444 8 216 3.2 6.4 0.00 1.04 0.05 96 1007.5
20260507002943 8 221 3.2 8.0 0.00 1.04 0.05 96 1007.5
20260507002443 8 221 3.2 8.0 0.00 1.04 0.05 96 1007.5
20260507001941 8 203 3.2 4.8 0.03 1.04 0.05 96 1007.4
20260507001440 8 203 3.2 4.8 0.03 1.04 0.05 96 1007.4
20260507000939 8 203 3.2 6.4 0.03 1.04 0.05 96 1007.5
20260507000438 8 203 3.2 6.4 0.03 1.04 0.05 96 1007.5
20260506235938 8 190 3.2 6.4 0.03 1.04 0.05 96 1007.5
20260506235436 8 190 3.2 6.4 0.03 1.04 0.05 96 1007.5
20260506234935 8 200 6.4 8.0 0.03 1.02 0.05 95 1007.5
20260506234434 8 200 6.4 8.0 0.03 1.02 0.05 95 1007.5
20260506233933 8 207 8.0 11.3 0.03 1.02 0.05 95 1007.5
20260506233432 8 207 8.0 11.3 0.03 1.02 0.05 95 1007.5
20260506232932 8 200 8.0 11.3 0.03 1.02 0.05 95 1007.5
20260506232431 8 200 8.0 11.3 0.05 1.02 0.05 95 1007.5
20260506231930 8 195 6.4 11.3 0.03 1.02 0.05 95 1007.5
20260506231428 8 195 6.4 11.3 0.03 1.02 0.05 95 1007.5
20260506230927 8 201 8.0 14.5 0.03 1.02 0.05 95 1007.5
20260506230426 8 201 8.0 14.5 0.05 1.02 0.05 95 1007.5
20260506225925 9 222 12.9 19.3 0.03 0.99 0.03 95 1007.6
20260506225425 9 222 12.9 19.3 0.03 0.99 0.03 95 1007.6
20260506224924 9 270 3.2 22.5 0.03 0.99 0.03 95 1007.6
20260506224423 9 270 3.2 22.5 0.05 0.99 0.03 95 1007.6
20260506223922 9 302 1.6 3.2 0.05 0.99 0.03 94 1007.6
20260506223421 9 106 1.6 4.8 0.05 0.99 0.03 94 1007.6
20260506222919 9 106 1.6 4.8 0.05 0.99 0.03 94 1007.6
20260506222418 9 67 3.2 6.4 0.05 0.99 0.00 94 1007.6
20260506221917 9 67 3.2 6.4 0.05 0.99 0.00 94 1007.6
20260506221417 9 75 3.2 6.4 0.05 0.99 0.00 94 1007.5
20260506220916 9 75 3.2 6.4 0.05 0.99 0.00 94 1007.5
20260506220415 9 90 1.6 6.4 0.05 0.97 0.00 94 1007.4
20260506215915 9 90 1.6 6.4 0.05 0.97 0.97 94 1007.4
20260506215413 9 135 3.2 9.7 0.05 0.97 0.97 94 1007.3
20260506214912 9 135 3.2 9.7 0.05 0.97 0.97 94 1007.3
20260506214411 9 159 1.6 6.4 0.05 0.97 0.97 94 1007.3
20260506213910 9 159 1.6 6.4 0.05 0.97 0.97 94 1007.3
20260506213410 9 174 1.6 6.4 0.03 0.94 0.94 94 1007.2
20260506212907 9 174 1.6 6.4 0.03 0.94 0.94 94 1007.2
20260506212406 10 180 1.6 4.8 0.03 0.94 0.94 94 1007.1
20260506211906 10 180 1.6 4.8 0.03 0.94 0.94 94 1007.1
20260506211405 10 180 1.6 6.4 0.03 0.94 0.94 94 1007.1
20260506210904 10 180 1.6 6.4 0.03 0.94 0.94 94 1007.1
20260506210402 10 186 1.6 3.2 0.03 0.94 0.94 93 1007.1
20260506205901 10 186 1.6 3.2 0.03 0.94 0.94 93 1007.1
20260506205400 10 177 1.6 4.8 0.00 0.94 0.91 93 1007.1
20260506204900 10 177 1.6 4.8 0.00 0.94 0.91 93 1007.1
20260506204359 10 173 1.6 4.8 0.00 0.91 0.91 93 1007.0
20260506203858 10 173 1.6 4.8 0.00 0.91 0.91 93 1007.0
20260506203357 10 163 1.6 3.2 0.00 0.91 0.91 94 1007.0
20260506202856 10 163 1.6 3.2 0.00 0.91 0.91 94 1007.0
20260506202354 10 183 1.6 4.8 0.00 0.91 0.91 94 1006.9
20260506201854 10 183 1.6 4.8 0.00 0.91 0.91 94 1006.9
20260506201353 10 183 1.6 4.8 0.00 0.91 0.91 94 1006.9
20260506200852 10 164 1.6 3.2 0.00 0.91 0.91 94 1006.8
20260506200351 10 164 1.6 3.2 0.00 0.91 0.91 94 1006.8
20260506195850 10 135 1.6 3.2 0.00 0.91 0.91 94 1006.7
20260506195350 10 135 1.6 3.2 0.00 0.91 0.91 94 1006.7
20260506194848 10 216 1.6 3.2 0.00 0.91 0.91 94 1006.5
20260506194348 10 216 1.6 3.2 0.00 0.91 0.91 94 1006.5
20260506193846 10 90 1.6 1.6 0.00 0.91 0.91 93 1006.4
20260506193345 10 90 1.6 1.6 0.00 0.91 0.91 93 1006.4
20260506192844 10 173 1.6 3.2 0.00 0.91 0.91 93 1006.3
20260506192343 10 173 1.6 3.2 0.00 0.91 0.91 93 1006.3
20260506191842 10 173 1.6 4.8 0.00 0.91 0.91 93 1006.2
20260506191340 10 173 1.6 4.8 0.00 0.91 0.91 93 1006.2
20260506190840 10 330 1.6 3.2 0.03 0.91 0.91 93 1006.0
20260506190338 10 330 1.6 3.2 0.03 0.91 0.91 93 1006.0
20260506185838 10 315 1.6 3.2 0.05 0.91 0.91 93 1005.9
20260506185337 10 315 1.6 3.2 0.05 0.91 0.91 93 1005.9
20260506184836 10 154 1.6 4.8 0.05 0.91 0.91 92 1005.8
20260506184334 10 154 1.6 4.8 0.05 0.91 0.91 92 1005.8
20260506183833 10 180 1.6 4.8 0.05 0.91 0.91 92 1005.6
20260506183332 10 180 1.6 4.8 0.05 0.91 0.91 92 1005.6
20260506182832 10 180 3.2 6.4 0.05 0.91 0.91 92 1005.7
20260506182331 10 180 3.2 6.4 0.05 0.94 0.91 92 1005.7
20260506181830 10 205 3.2 6.4 0.05 0.91 0.89 92 1005.6
20260506181329 10 205 3.2 6.4 0.05 0.94 0.89 92 1005.6
20260506180828 11 198 3.2 6.4 0.08 0.91 0.89 93 1005.6
20260506180327 11 198 3.2 6.4 0.08 0.94 0.89 93 1005.6
20260506175826 11 164 1.6 3.2 0.08 0.91 0.86 93 1005.4
20260506175324 11 164 1.6 3.2 0.08 0.91 0.86 93 1005.4
20260506174823 11 195 1.6 6.4 0.10 0.89 0.86 93 1005.3
20260506174322 11 195 1.6 6.4 0.10 0.91 0.86 93 1005.3
20260506173822 11 198 1.6 3.2 0.10 0.89 0.84 92 1005.3
20260506173320 11 198 1.6 3.2 0.10 0.94 0.84 92 1005.3
20260506172820 11 203 1.6 6.4 0.13 0.94 0.84 92 1005.3
20260506172318 11 203 1.6 6.4 0.13 0.94 0.84 92 1005.3
20260506171818 11 187 1.6 4.8 0.13 0.94 0.84 92 1005.2
20260506171317 11 187 1.6 4.8 0.13 0.94 0.84 92 1005.2
20260506170816 11 190 1.6 6.4 0.13 0.91 0.81 91 1005.2
20260506170314 11 190 1.6 6.4 0.13 0.97 0.81 91 1005.2
20260506165813 11 168 1.6 6.4 0.10 0.94 0.79 92 1005.2
20260506165312 11 168 1.6 6.4 0.10 0.97 0.79 92 1005.2
20260506164811 11 175 1.6 6.4 0.08 0.94 0.76 91 1005.3
20260506164310 11 175 1.6 6.4 0.08 0.94 0.76 91 1005.3
20260506163810 11 90 1.6 4.8 0.08 0.94 0.76 91 1005.1
20260506163309 11 90 1.6 4.8 0.08 0.94 0.76 91 1005.1
20260506162809 12 119 1.6 3.2 0.05 0.91 0.74 91 1005.0
20260506162407 12 119 1.6 3.2 0.05 0.91 0.74 91 1005.0
20260506161906 12 149 1.6 4.8 0.10 0.89 0.71 91 1004.9
20260506161304 12 149 1.6 4.8 0.10 0.89 0.71 91 1004.9
20260506160804 12 181 3.2 8.0 0.10 0.86 0.69 91 1004.8
20260506160302 12 181 3.2 8.0 0.10 0.86 0.69 91 1004.8
20260506155802 12 180 1.6 6.4 0.18 0.86 0.69 90 1004.7
20260506155301 12 180 1.6 6.4 0.18 0.86 0.69 90 1004.7
20260506154800 12 184 3.2 6.4 0.25 0.86 0.69 90 1004.6
20260506154258 12 184 3.2 6.4 0.25 0.86 0.69 90 1004.6
20260506153757 12 200 3.2 8.0 0.36 0.86 0.69 91 1004.6
20260506153256 12 200 3.2 8.0 0.36 0.86 0.69 91 1004.6
20260506152755 12 171 1.6 4.8 0.38 0.86 0.69 92 1004.6
20260506152254 12 171 1.6 4.8 0.38 0.86 0.69 92 1004.6
20260506151754 12 215 1.6 3.2 0.30 0.79 0.58 91 1004.5
20260506151253 12 215 1.6 3.2 0.30 0.79 0.58 91 1004.5
20260506150752 13 135 1.6 3.2 0.30 0.76 0.58 91 1004.5
20260506150251 13 135 1.6 3.2 0.30 0.76 0.58 91 1004.5
20260506145749 13 225 1.6 3.2 0.28 0.69 0.51 90 1004.4
20260506145248 13 225 1.6 3.2 0.28 0.69 0.51 90 1004.4